www.pogodaiklimat.ru
Время
и дата
22:52 03.03
23:52 03.03
00:52 04.03
01:52 04.03
02:52 04.03
03:52 04.03
04:52 04.03
05:52 04.03
06:52 04.03
07:52 04.03
08:52 04.03
09:52 04.03
10:52 04.03
11:52 04.03
12:52 04.03
13:52 04.03
14:52 04.03
15:52 04.03
16:52 04.03
17:52 04.03
18:52 04.03
19:52 04.03
20:52 04.03
21:52 04.03
22:52 04.03
23:52 04.03
00:52 05.03
01:52 05.03
02:52 05.03
03:52 05.03
04:52 05.03
05:52 05.03
06:52 05.03
07:52 05.03
08:52 05.03
09:52 05.03
10:52 05.03
11:52 05.03
12:52 05.03
13:52 05.03
14:52 05.03
15:52 05.03
16:52 05.03
17:52 05.03
18:52 05.03
19:52 05.03
20:52 05.03
21:52 05.03
Ветер
(напр.,м/с)
Видим. Явления Облачность Т
(С)
Тd
(С)
f
(%)
Тe
(С)
Тes
(С)
Комфортность P
(гПа)
Po
(гПа)
Тmin
(С)
Tmax
(С)
R
(мм)
R24
(мм)
S
(см)
З 1 16 км ясно +8.9 -2.2 46 +7 +7 1017.7 980.3
СЗ 1 16 км ясно +8.9 -1.1 49 +7 +7 1018.0 980.6
СЗ 2 16 км ясно +7.8 -1.1 53 +5 +5 1017.7 980.3 +7.8 +13.9
СЗ 2 16 км ясно +7.8 -1.1 53 +4 +4 1017.8 980.6
СЗ 2 16 км ясно +7.8 -1.1 53 +4 +4 1017.5 980.3
СЗ 3 16 км ясно +7.8 -1.1 53 +4 +4 1017.5 980.3
СЗ 2 16 км ясно +7.2 -1.1 56 +4 +4 1017.7 980.6
СЗ 2 16 км ясно +7.2 -1.1 56 +4 +4 1018.0 980.6
СЗ 3 16 км ясно +6.7 -1.1 57 +3 +3 1018.4 980.9 +6.7 +8.3
СЗ 2 16 км ясно +7.8 -0.6 55 +4 +4 1019.0 981.6
СЗ 2 16 км ясно +10.6 0.0 48 +9 +9 1019.6 982.2
С 2 16 км ясно +13.9 0.0 38 +13 +15 1019.8 982.6
С 3 16 км ясно +16.1 -0.6 32 +15 +17 1019.8 982.6
С 2 16 км ясно +17.8 0.0 30 +17 +23 1019.4 982.2
С 3
{4}
16 км ясно +18.9 0.0 28 +19 +24 1018.7 981.6 +6.7 +18.9
СЗ 3 16 км ясно +20.0 +0.6 27 +20 +23 1017.7 980.6
С 3
{6}
16 км ясно +20.6 -1.1 23 +20 +25 1016.5 979.3
СЗ 4
{5}
16 км ясно +20.6 -3.3 20 +20 +21 1016.0 979.0
С 3 16 км ясно +20.6 -3.9 19 +20 +21 1015.9 978.6
С 3
{4}
16 км ясно +19.4 -2.8 22 +19 +19 1016.1 979.0
СЗ 3
{5}
16 км ясно +17.2 -1.1 29 +16 +16 1016.8 979.6 +17.2 +21.1
С 2 16 км ясно +16.7 -1.7 28 +16 +16 1017.1 980.0
СЗ 1 16 км ясно +15.0 -1.7 32 +15 +15 1017.3 980.0
СЗ 1 16 км ясно +13.3 -1.1 37 +12 +12 1017.2 980.0
СЗ 1 16 км ясно +11.7 0.0 44 +10 +10 1017.5 980.3
СЗ 2 16 км ясно +10.0 +0.6 52 +8 +8 1017.6 980.3
СЗ 2 16 км ясно +10.0 +0.6 52 +8 +8 1017.5 980.3 +8.9 +17.2
С 2 16 км ясно +10.0 -0.6 48 +8 +8 1017.6 980.6
С 2 16 км ясно +10.0 -1.1 46 +7 +7 1017.5 980.3
СЗ 2 16 км ясно +7.8 -0.6 55 +5 +5 1017.3 980.3
СЗ 2 16 км ясно +6.7 -0.6 60 +3 +3 1018.0 980.9
СЗ 2 16 км ясно +6.7 -1.1 57 +4 +4 1018.0 980.9
СЗ 2 16 км ясно +5.6 -0.6 64 +2 +2 1018.5 981.3 +5.6 +11.7
СЗ 2 16 км 2/2 450 м
[Ci]
+7.2 -0.6 58 +4 +4 1019.0 981.6
С 2 16 км 2/0 6000 м
[Ac Ci]
+10.0 -1.1 46 +8 +9 1019.8 982.6
СЗ 1 16 км 8/0 6000 м
[Ac Ci]
+12.8 -2.8 34 +12 +13 1019.7 982.6
С 2 16 км 2/0 7500 м
[Ci]
+15.0 -5.0 25 +14 +18 1019.4 982.2
СВ 2 16 км 8/0 6000 м
[Ac Ci]
+16.7 -6.1 20 +16 +21 1018.6 981.3
С 2 16 км 8/0 6000 м
[Ac Ci]
+17.8 -8.3 16 +18 +24 1017.9 980.6 +5.6 +17.8
нст 1 16 км 8/0 4500 м
[Ac Ci]
+18.3 -6.7 18 +18 +25 1016.9 980.0
С 2 16 км 8/0 4500 м
[Ac Ci]
+18.3 -8.3 16 +18 +24 1016.1 979.0
СЗ 2 16 км 5/0 4500 м
[Ac Ci]
+18.9 -6.1 18 +19 +21 1015.9 978.6
З 2 16 км 8/0 4200 м
[Ac Ci]
+17.2 -6.1 20 +17 +18 1016.1 979.0
СЗ 3 16 км 10/0 3600 м
[Ac Ci]
+16.1 -5.6 22 1017.1
СЗ 3
{4}
16 км 10/0 3600 м
[Ac]
+13.9 -6.7 23 +12 +12 1018.1 980.6 +13.9 +19.4
СЗ 3 16 км 10/0 3300 м
[Ac]
+12.2 -6.7 26 +10 +10 1018.9 981.3
С 2 16 км 10/0 3000 м
[Ac]
+11.1 -7.8 26 +9 +9 1019.0 981.6
С 2 16 км 10/0 2550 м
[Ac]
+11.1 -7.8 26 +9 +9 1018.5 981.3
Местоположение метеостанции Hartsfield-Jackson Atlanta International Airport: широта 33.6403 долгота -84.4269 высота над уровнем моря 313 м.
В архиве по умолчанию представлена погода в Атланте за последние 1-2 суток. Обновление информации о фактической погоде в базе происходит ежечасно! Архивные данные за месяц целиком и за предыдущие месяцы Вы можете получить, выбрав интересующий диапазон дат из раскрывающегося списка и нажав кнопку "Ввод!".
Внимание! Архив погоды МЕТАР в базе сайта по станциям, не включенным в климатический монитор, хранится не более 60 дней. Нет смысла пытаться выбрать более раннюю дату.
*Определитесь, кто Вы:
Внимание! Время в таблицах - местное (без учета летнего времени). Для получения всемирного времени необходимо вычесть поправку, которая равна -5 ч.
Смотрите также архив погоды в соседних городах и на ближайших метеорологических станциях:
Партнеры нашего сайта:      
Пояснения к столбцам:
  • Ветер - указаны скорость ветра в м/с - средняя за 10 мин, порывы в срок и между сроками (в фигурных скобках) и направление, откуда дует ветер: С - северный,
  • СВ - северо-восточный, В - восточный, ЮВ - юго-восточный, Ю - южный, ЮЗ - юго-западный, З - западный, СЗ - северо-западный.
  • Видимость - горизонтальная дальность видимости в метрах или километрах. При видимости от 1 до 10 км при отсутствии осадков обычно наблюдается дымка, при ухудшении видимости до 1 км и менее - туман. В сухую погоду видимость может ухудшаться дымом, пылью или мглою.
  • Явления - указаны атмосферные явления, наблюдавшиеся в срок или в последний час перед сроком; фигурными скобками обозначены явления, наблюдавшиеся между сроками (за 1-3 часа до срока); квадратными скобками обозначены град или гололедные отложения с указанием их диаметра в мм.
  • Облачность - указаны через наклонную черту общая и нижняя облачность в баллах и высота нижней границы облаков в метрах; квадратными скобками обозначены формы облаков: Ci - перистые, Cs - перисто-слоистые, Cc - перисто-кучевые, Ac - высококучевые, As - высокослоистые, Sc - слоисто-кучевые, Ns - слоисто-дождевые, Cu - кучевые, Cb - кучево-дождевые. Подробнее классификацию облаков см. в Атласе облаков (PDF).
  • T - Температура воздуха - температура, измеренная на высоте 2 м над землей.
  • Td - Температура точки росы - температура, при понижении до которой содержащийся в воздухе водяной пар достигнет насыщения.
  • f - Относительная влажность воздуха - влажноcть воздуха, измеренная на высоте 2 м над землей.
  • Te - Эффективная температура - температура, которую ощущает одетый по сезону человек в тени. Характеристика душности погоды. При расчете учитывается влияние влажности воздуха и скорости ветра на теплоощущения человека.
  • Tes - Эффективная температура на солнце - температура, которую ощущает человек, с поправкой на солнечный нагрев. Характеристика знойности погоды. Зависит от высоты солнца над горизонтом, облачности и скорости ветра. Ночью, в пасмурную погоду, а также при ветре 12 м/с и более поправка равна нулю.
  • P - Атмосферное давление - приведенное к уровню моря атмосферное давление.
  • Po - Атмосферное давление - измеренное на уровне метеостанции атмосферное давление.
  • Tmin - Минимальная температура - минимум температуры воздуха на высоте 2 м над землей.
  • Tmax - Максимальная температура - максимум температуры воздуха на высоте 2 м над землей.
  • R - Количество осадков - Количество выпавших осадков за период времени, мм. При наведении курсора мыши на число - период времени, за который выпало указанное количество осадков.
  • R24 - Количество осадков - Количество выпавших осадков за 24 часа, мм.
  • S - Снежный покров - Высота снежного покрова, см. При наведении курсора мыши на число - состояние снежного покрова и степень покрытия местности в баллах.